| time (UTC) | temp F | wind direction | speed MPH | gust MPH | rain 1hr in | rain 24hr in | rain mn in | humidity % | barometer mb |
| 20260502163517 | 54 | 225 | 5.0 | 8.0 | 0.00 | 0.00 | 0.00 | 46 | 1021.3 |
| 20260502162517 | 54 | 270 | 4.0 | 8.0 | 0.00 | 0.00 | 0.00 | 47 | 1021.4 |
| 20260502161558 | 54 | 248 | 3.0 | 6.0 | 0.00 | 0.00 | 0.00 | 47 | 1021.4 |
| 20260502160517 | 54 | 203 | 4.0 | 9.0 | 0.00 | 0.00 | 0.00 | 46 | 1021.5 |
| 20260502151517 | 52 | 248 | 2.0 | 6.0 | 0.00 | 0.00 | 0.00 | 48 | 1021.8 |
| 20260502150517 | 52 | 270 | 2.0 | 6.0 | 0.00 | 0.00 | 0.00 | 52 | 1021.7 |
| 20260502130517 | 43 | 0.0 | 2.0 | 0.00 | 0.00 | 0.00 | 72 | 1021.7 | |
| 20260502123517 | 39 | 0.0 | 0.0 | 0.00 | 0.00 | 0.00 | 77 | 1021.4 | |
| 20260502122537 | 37 | 0.0 | 1.0 | 0.00 | 0.00 | 0.00 | 81 | 1021.4 | |
| 20260502121557 | 35 | 0.0 | 0.0 | 0.00 | 0.00 | 0.00 | 87 | 1021.2 | |
| 20260502120517 | 33 | 0.0 | 0.0 | 0.00 | 0.00 | 0.00 | 88 | 1020.9 | |
| 20260502115517 | 32 | 0.0 | 0.0 | 0.00 | 0.00 | 0.00 | 89 | 1020.9 | |
| 20260502114517 | 31 | 0.0 | 0.0 | 0.00 | 0.00 | 0.00 | 88 | 1020.7 | |
| 20260502113537 | 31 | 0.0 | 0.0 | 0.00 | 0.00 | 0.00 | 87 | 1020.6 | |
| 20260502112517 | 31 | 0.0 | 0.0 | 0.00 | 0.00 | 0.00 | 87 | 1020.4 | |
| 20260502111537 | 31 | 0.0 | 0.0 | 0.00 | 0.00 | 0.00 | 87 | 1020.4 | |
| 20260502110517 | 32 | 0.0 | 0.0 | 0.00 | 0.00 | 0.00 | 87 | 1020.4 | |
| 20260502105517 | 32 | 0.0 | 0.0 | 0.00 | 0.00 | 0.00 | 87 | 1020.4 | |
| 20260502104517 | 32 | 0.0 | 0.0 | 0.00 | 0.00 | 0.00 | 86 | 1020.5 | |
| 20260502103517 | 32 | 0.0 | 0.0 | 0.00 | 0.00 | 0.00 | 85 | 1020.4 | |
| 20260502102517 | 32 | 0.0 | 0.0 | 0.00 | 0.00 | 0.00 | 84 | 1020.4 | |
| 20260502101517 | 33 | 0.0 | 0.0 | 0.00 | 0.00 | 0.00 | 83 | 1020.2 | |
| 20260502100517 | 33 | 0.0 | 0.0 | 0.00 | 0.00 | 0.00 | 83 | 1020.2 | |
| 20260502091517 | 33 | 0.0 | 0.0 | 0.00 | 0.00 | 0.00 | 83 | 1020.1 | |
| 20260502090517 | 34 | 0.0 | 1.0 | 0.00 | 0.00 | 0.00 | 83 | 1020.1 | |
| 20260502071517 | 37 | 0.0 | 0.0 | 0.00 | 0.00 | 0.00 | 79 | 1020.0 | |
| 20260502070517 | 37 | 0.0 | 0.0 | 0.00 | 0.00 | 0.00 | 78 | 1020.2 | |
| 20260502065557 | 37 | 0.0 | 0.0 | 0.00 | 0.00 | 0.00 | 79 | 1020.2 | |
| 20260502064517 | 37 | 0.0 | 1.0 | 0.00 | 0.00 | 0.00 | 78 | 1020.2 | |
| 20260502063517 | 38 | 0.0 | 1.0 | 0.00 | 0.00 | 0.00 | 77 | 1020.2 | |
| 20260502062557 | 38 | 0.0 | 0.0 | 0.00 | 0.00 | 0.00 | 77 | 1020.2 | |
| 20260502061557 | 39 | 0.0 | 0.0 | 0.00 | 0.00 | 0.00 | 75 | 1020.3 | |
| 20260502060537 | 39 | 0.0 | 0.0 | 0.00 | 0.00 | 0.00 | 75 | 1020.2 | |
| 20260502055517 | 39 | 0.0 | 1.0 | 0.00 | 0.00 | 0.00 | 74 | 1020.2 | |
| 20260502054517 | 40 | 0.0 | 1.0 | 0.00 | 0.00 | 0.00 | 73 | 1020.3 | |
| 20260502053557 | 41 | 0.0 | 1.0 | 0.00 | 0.00 | 0.00 | 72 | 1020.1 | |
| 20260502052517 | 42 | 0.0 | 1.0 | 0.00 | 0.00 | 0.00 | 70 | 1020.0 | |
| 20260502051517 | 42 | 0.0 | 1.0 | 0.00 | 0.00 | 0.00 | 70 | 1020.1 | |
| 20260502050517 | 43 | 0.0 | 1.0 | 0.00 | 0.00 | 0.00 | 69 | 1020.2 | |
| 20260502045516 | 43 | 0.0 | 2.0 | 0.00 | 0.00 | 0.00 | 68 | 1020.1 | |
| 20260502044516 | 44 | 0.0 | 2.0 | 0.00 | 0.00 | 0.00 | 69 | 1020.1 | |
| 20260502043516 | 44 | 0.0 | 2.0 | 0.00 | 0.00 | 0.00 | 68 | 1020.1 | |
| 20260502042516 | 45 | 338 | 1.0 | 3.0 | 0.00 | 0.00 | 0.00 | 66 | 1020.0 |
| 20260502041516 | 45 | 338 | 1.0 | 2.0 | 0.00 | 0.00 | 0.00 | 66 | 1019.8 |
| 20260502040516 | 46 | 0 | 1.0 | 3.0 | 0.00 | 0.00 | 0.00 | 66 | 1019.9 |
| 20260502035516 | 46 | 0.0 | 0.0 | 0.00 | 0.00 | 0.00 | 65 | 1019.9 | |
| 20260502034515 | 46 | 0.0 | 0.0 | 0.00 | 0.00 | 0.00 | 63 | 1019.8 | |
| 20260502033516 | 46 | 0.0 | 2.0 | 0.00 | 0.00 | 0.00 | 63 | 1019.7 | |
| 20260502032516 | 47 | 0.0 | 2.0 | 0.00 | 0.00 | 0.00 | 62 | 1019.7 | |
| 20260502031536 | 47 | 0.0 | 0.0 | 0.00 | 0.00 | 0.00 | 61 | 1019.7 | |
| 20260502030536 | 48 | 0.0 | 0.0 | 0.00 | 0.00 | 0.00 | 61 | 1019.7 | |
| 20260502025516 | 48 | 0.0 | 0.0 | 0.00 | 0.00 | 0.00 | 60 | 1019.6 | |
| 20260502024536 | 48 | 315 | 1.0 | 2.0 | 0.00 | 0.00 | 0.00 | 60 | 1019.5 |
| 20260502023516 | 48 | 338 | 1.0 | 4.0 | 0.00 | 0.00 | 0.00 | 59 | 1019.3 |
| 20260502022516 | 49 | 0.0 | 2.0 | 0.00 | 0.00 | 0.00 | 58 | 1019.2 | |
| 20260502021516 | 49 | 338 | 1.0 | 3.0 | 0.00 | 0.00 | 0.00 | 57 | 1019.0 |
| 20260502020516 | 49 | 315 | 1.0 | 3.0 | 0.00 | 0.00 | 0.00 | 58 | 1018.8 |
| 20260502015516 | 49 | 338 | 1.0 | 3.0 | 0.00 | 0.00 | 0.00 | 58 | 1018.7 |
| 20260502014516 | 50 | 338 | 2.0 | 4.0 | 0.00 | 0.00 | 0.00 | 58 | 1018.7 |
| 20260502013516 | 50 | 315 | 1.0 | 3.0 | 0.00 | 0.00 | 0.00 | 57 | 1018.5 |
| 20260502012516 | 51 | 338 | 1.0 | 4.0 | 0.00 | 0.00 | 0.00 | 57 | 1018.4 |
| 20260502011515 | 51 | 338 | 1.0 | 3.0 | 0.00 | 0.00 | 0.00 | 56 | 1018.3 |
| 20260502010521 | 52 | 338 | 2.0 | 6.0 | 0.00 | 0.00 | 0.00 | 55 | 1018.2 |
| 20260502005536 | 52 | 338 | 2.0 | 5.0 | 0.00 | 0.00 | 0.00 | 55 | 1018.0 |
| 20260502004536 | 52 | 315 | 1.0 | 5.0 | 0.00 | 0.00 | 0.00 | 53 | 1017.9 |
| 20260502003516 | 52 | 338 | 2.0 | 4.0 | 0.00 | 0.00 | 0.00 | 54 | 1017.7 |
| 20260502002616 | 53 | 315 | 1.0 | 3.0 | 0.00 | 0.00 | 0.00 | 54 | 1017.6 |
| 20260502001516 | 53 | 315 | 2.0 | 3.0 | 0.00 | 0.00 | 0.00 | 52 | 1017.6 |
| 20260502000516 | 54 | 338 | 2.0 | 5.0 | 0.00 | 0.00 | 0.00 | 52 | 1017.5 |
| 20260501235516 | 54 | 0 | 1.0 | 4.0 | 0.00 | 0.00 | 0.00 | 53 | 1017.5 |
| 20260501234516 | 54 | 338 | 2.0 | 7.0 | 0.00 | 0.00 | 0.00 | 50 | 1017.4 |
| 20260501233516 | 54 | 0 | 2.0 | 6.0 | 0.00 | 0.00 | 0.00 | 51 | 1017.4 |
| 20260501232515 | 54 | 338 | 3.0 | 8.0 | 0.00 | 0.00 | 0.00 | 49 | 1017.4 |
| 20260501231516 | 54 | 338 | 2.0 | 7.0 | 0.00 | 0.00 | 0.00 | 51 | 1017.4 |
| 20260501230515 | 54 | 315 | 3.0 | 7.0 | 0.00 | 0.00 | 0.00 | 47 | 1017.4 |
| 20260501225516 | 55 | 338 | 2.0 | 4.0 | 0.00 | 0.00 | 0.00 | 49 | 1017.3 |
| 20260501224515 | 56 | 338 | 3.0 | 10.0 | 0.00 | 0.00 | 0.00 | 47 | 1017.4 |
| 20260501223516 | 56 | 338 | 3.0 | 7.0 | 0.00 | 0.00 | 0.00 | 48 | 1017.5 |
| 20260501222515 | 56 | 338 | 2.0 | 7.0 | 0.00 | 0.00 | 0.00 | 44 | 1017.4 |
| 20260501221516 | 58 | 315 | 2.0 | 5.0 | 0.00 | 0.00 | 0.00 | 48 | 1017.3 |
| 20260501220515 | 58 | 315 | 3.0 | 8.0 | 0.00 | 0.00 | 0.00 | 45 | 1017.4 |
| 20260501215536 | 58 | 315 | 2.0 | 6.0 | 0.00 | 0.00 | 0.00 | 49 | 1017.4 |
| 20260501214515 | 58 | 338 | 2.0 | 6.0 | 0.00 | 0.00 | 0.00 | 49 | 1017.5 |
| 20260501213515 | 58 | 0 | 3.0 | 8.0 | 0.00 | 0.00 | 0.00 | 47 | 1017.5 |
| 20260501212516 | 59 | 338 | 3.0 | 9.0 | 0.00 | 0.00 | 0.00 | 49 | 1017.4 |
| 20260501211516 | 58 | 293 | 4.0 | 8.0 | 0.00 | 0.00 | 0.00 | 42 | 1017.5 |
| 20260501210536 | 58 | 0 | 3.0 | 8.0 | 0.00 | 0.00 | 0.00 | 50 | 1017.5 |
| 20260501205516 | 58 | 23 | 2.0 | 8.0 | 0.00 | 0.00 | 0.00 | 45 | 1017.7 |
| 20260501204515 | 59 | 0 | 2.0 | 7.0 | 0.00 | 0.00 | 0.00 | 49 | 1017.7 |
| 20260501203515 | 58 | 315 | 2.0 | 5.0 | 0.00 | 0.00 | 0.00 | 51 | 1017.7 |
| 20260501202516 | 58 | 0 | 2.0 | 6.0 | 0.00 | 0.00 | 0.00 | 51 | 1017.7 |
| 20260501201515 | 58 | 293 | 5.0 | 11.0 | 0.00 | 0.00 | 0.00 | 45 | 1017.8 |
| 20260501200515 | 58 | 315 | 3.0 | 7.0 | 0.00 | 0.00 | 0.00 | 54 | 1017.9 |
| 20260501195515 | 57 | 0 | 2.0 | 6.0 | 0.00 | 0.00 | 0.00 | 48 | 1017.8 |
| 20260501194535 | 57 | 338 | 3.0 | 8.0 | 0.00 | 0.00 | 0.00 | 51 | 1017.8 |
| 20260501193516 | 57 | 338 | 4.0 | 10.0 | 0.00 | 0.00 | 0.00 | 48 | 1017.8 |
| 20260501192516 | 56 | 315 | 3.0 | 10.0 | 0.00 | 0.00 | 0.00 | 49 | 1017.7 |
| 20260501191516 | 55 | 0 | 3.0 | 9.0 | 0.00 | 0.00 | 0.00 | 55 | 1017.7 |
| 20260501190516 | 56 | 315 | 3.0 | 8.0 | 0.00 | 0.00 | 0.00 | 52 | 1017.5 |
| 20260501185516 | 56 | 338 | 2.0 | 7.0 | 0.00 | 0.00 | 0.00 | 53 | 1017.5 |
| 20260501184516 | 56 | 315 | 2.0 | 5.0 | 0.00 | 0.00 | 0.00 | 52 | 1017.5 |
| 20260501183515 | 56 | 338 | 2.0 | 7.0 | 0.00 | 0.00 | 0.00 | 55 | 1017.4 |
| 20260501182535 | 54 | 293 | 3.0 | 7.0 | 0.00 | 0.00 | 0.00 | 60 | 1017.5 |
| 20260501181515 | 55 | 293 | 4.0 | 10.0 | 0.00 | 0.00 | 0.00 | 54 | 1017.5 |
| 20260501180516 | 56 | 315 | 2.0 | 8.0 | 0.00 | 0.00 | 0.00 | 56 | 1017.5 |
| 20260501175515 | 56 | 338 | 2.0 | 7.0 | 0.00 | 0.00 | 0.00 | 55 | 1017.6 |
| 20260501174516 | 56 | 338 | 3.0 | 6.0 | 0.00 | 0.00 | 0.00 | 58 | 1017.5 |
| 20260501173516 | 57 | 338 | 3.0 | 6.0 | 0.00 | 0.00 | 0.00 | 62 | 1017.6 |
| 20260501172515 | 54 | 315 | 3.0 | 9.0 | 0.00 | 0.00 | 0.00 | 63 | 1017.6 |